Fallon NAS, NV

12:06 PM PDT on June 23, 2017 (GMT -0700)
Fallon Naval Air Station

Weather History for KNFL - May, 2014

Change the Weather History Date:

Monday, May 19, 2014

  Actual Average Record
Temperature  
Mean Temperature 56 °F -  
Max Temperature 71 °F 74 °F 93 °F (1963)
Min Temperature 42 °F 43 °F 26 °F (1960)
Degree Days  
Heating Degree Days 9    
Growing Degree Days 6 (Base 50)    
Moisture  
Dew Point 28 °F    
Average Humidity 35    
Maximum Humidity 74    
Minimum Humidity 16    
Precipitation  
Precipitation 0.00 in - - ()
Sea Level Pressure  
Sea Level Pressure 29.81 in    
Wind  
Wind Speed 6 mph (WNW)    
Max Wind Speed 17 mph    
Max Gust Speed 37 mph    
Visibility 10 miles    
Events Rain    
Averages and records for this station are not official NWS values.
T = Trace of Precipitation, MM = Missing Value Source: NWS Daily Summary

Daily Weather History Graph

Daily Weather History Graph

Search for Another Location

Airport or City:

Trip Planner

Search our weather history database for the weather conditions in past years. The results will help you decide how hot, cold, wet, or windy it might be!

Date:

Astronomy

May. 19, 2014 Rise Set
Actual Time 5:37 AM PDT 8:05 PM PDT
Civil Twilight 5:06 AM PDT 8:36 PM PDT
Nautical Twilight 4:28 AM PDT 9:14 PM PDT
Astronomical Twilight 3:46 AM PDT 9:56 PM PDT
Moon No Moon Rise 10:40 AM PDT (5/19)
Length of Visible Light 15h 29m
Length of Day
14h 28m
Waning Gibbous, 70% of the Moon is Illuminated
May 19
Waning Gibbous
May 21
Last Quarter
May 28
New
Jun 5
First Quarter
Jun 12
Full

Hourly Weather History & Observations

Time (PDT) Temp. Windchill Dew Point Humidity Pressure Visibility Wind Dir Wind Speed Gust Speed Precip Events Conditions
12:56 AM 50.0 °F - 27.0 °F 41% 29.85 in 10.0 mi West 5.8 mph - N/A   Clear
1:56 AM 43.0 °F - 24.1 °F 47% 29.85 in 10.0 mi Calm Calm - N/A   Clear
2:56 AM 44.1 °F 40.8 °F 26.1 °F 49% 29.85 in 10.0 mi West 5.8 mph - N/A   Clear
3:56 AM 44.1 °F 41.5 °F 27.0 °F 51% 29.85 in 10.0 mi WSW 4.6 mph - N/A   Clear
4:56 AM 42.1 °F - 26.1 °F 53% 29.86 in 10.0 mi Calm Calm - N/A   Clear
7:56 AM 51.8 °F - 30.2 °F 44% 29.86 in 10.0 mi Calm Calm - N/A   Mostly Cloudy
8:56 AM 57.0 °F - 30.9 °F 37% 29.86 in 10.0 mi Calm Calm - N/A   Overcast
9:56 AM 61.0 °F - 32.0 °F 34% 29.84 in 10.0 mi Variable 3.5 mph - N/A   Overcast
10:56 AM 62.1 °F - 28.9 °F 29% 29.84 in 10.0 mi SSE 3.5 mph - N/A   Overcast
11:56 AM 62.1 °F - 28.0 °F 28% 29.84 in 10.0 mi Variable 5.8 mph - N/A   Mostly Cloudy
12:56 PM 64.9 °F - 26.1 °F 23% 29.82 in 10.0 mi Variable 3.5 mph - N/A   Mostly Cloudy
1:56 PM 68.0 °F - 23.0 °F 18% 29.79 in 10.0 mi ENE 6.9 mph - N/A   Mostly Cloudy
2:56 PM 69.1 °F - 23.0 °F 18% 29.77 in 10.0 mi WNW 10.4 mph - N/A   Mostly Cloudy
3:56 PM 70.0 °F - 21.9 °F 16% 29.76 in 10.0 mi North - - N/A   Mostly Cloudy
4:56 PM 70.0 °F - 26.1 °F 19% 29.75 in 10.0 mi West 12.7 mph - N/A   Mostly Cloudy
5:56 PM 68.0 °F - 25.0 °F 20% 29.74 in 10.0 mi WNW 13.8 mph - N/A   Mostly Cloudy
6:56 PM 66.0 °F - 25.0 °F 21% 29.73 in 10.0 mi West 8.1 mph - N/A   Mostly Cloudy
7:56 PM 64.0 °F - 26.1 °F 24% 29.74 in 10.0 mi West 10.4 mph - N/A   Mostly Cloudy
8:09 PM 64.0 °F - 26.1 °F 24% 29.81 in 10.0 mi NNW 17.3 mph 32.2 mph 0.00 in Rain Light Rain
8:32 PM 63.0 °F - 25.0 °F 24% 29.81 in 10.0 mi NW 9.2 mph - 0.00 in   Mostly Cloudy
8:56 PM 61.0 °F - 30.0 °F 31% 29.76 in 10.0 mi WNW 17.3 mph 29.9 mph 0.00 in   Overcast
9:34 PM 59.0 °F - 30.9 °F 35% 29.87 in 10.0 mi NW 16.1 mph 25.3 mph 0.00 in Rain Light Rain
9:56 PM 55.9 °F - 37.0 °F 49% 29.81 in 10.0 mi West 11.5 mph 36.8 mph 0.00 in Rain Light Rain
10:56 PM 52.0 °F - 39.9 °F 63% 29.82 in 10.0 mi NW 16.1 mph - 0.00 in Rain Light Rain
11:56 PM 48.9 °F - 41.0 °F 74% 29.84 in 10.0 mi NW 17.3 mph - 0.00 in Rain Light Rain